Kiripotib Landing Site

Jump to: basic info | weather | comments

Related pages: nearby airports | nearby navaids

Basic information (top)

Location: lon -23.328300, lat 17.946400, elev 4,475 ft / 1,364 m msl
Status: small_airport

Weather (top)

Current conditions for Hosea Kutako International Airport 57nm (106km) NNW (rec'd 2014/12/23 03:00Z):

FYWH 230300Z 00000KT CAVOK 10/M08 Q1020 NOSIG

Airport forecast for Hosea Kutako International Airport 57nm (106km) NNW (rec'd 2014/12/22 18:10Z):

TAF FYWH 221600Z 2218/2324 31008KT CAVOK 
      BECMG 2309/2311 13008KT 9999 SCT045

Latest comments (top)

More details: Once can also land in the nearby salt ... [read]

Kiripotib Landing Strip Details: GPS location: S 23° 19' 50'' E 17° ... [read]

More... (top)

See also NOTAMs and nearby airports and navaids, or visit the Kiripotib Landing Site page at the main OurAirports website..